Weather History for KLOU - March, 2014

Change the Weather History Date:

Monday, March 10, 2014

  Actual Average Record
Temperature  
Mean Temperature 52 °F 45 °F  
Max Temperature 68 °F 55 °F 77 °F (2009)
Min Temperature 35 °F 36 °F 19 °F (2003)
Degree Days  
Heating Degree Days 13 20  
Month to date heating degree days 274 215  
Since 1 July heating degree days 4083 3576  
Cooling Degree Days 0 0  
Month to date cooling degree days 0 0  
Year to date cooling degree days 0 0  
Growing Degree Days 2 (Base 50)    
Moisture  
Dew Point 34 °F    
Average Humidity 56    
Maximum Humidity 85    
Minimum Humidity 27    
Precipitation  
Precipitation 0.00 in 0.11 in 1.95 in (1952)
Month to date precipitation 0.76 1.13  
Year to date precipitation 6.53 7.69  
Sea Level Pressure  
Sea Level Pressure 29.92 in    
Wind  
Wind Speed 9 mph (SW)    
Max Wind Speed 18 mph    
Max Gust Speed 24 mph    
Visibility 9 miles    
Events      
T = Trace of Precipitation, MM = Missing Value Source: NWS Daily Summary

Daily Weather History Graph

Daily Weather History Graph

Search for Another Location

Airport or City:

Trip Planner

Search our weather history database for the weather conditions in past years. The results will help you decide how hot, cold, wet, or windy it might be!

Date:

Astronomy

Mar. 10, 2014 Rise Set
Actual Time 8:01 AM EDT 7:44 PM EDT
Civil Twilight 7:35 AM EDT 8:11 PM EDT
Nautical Twilight 7:04 AM EDT 8:41 PM EDT
Astronomical Twilight 6:33 AM EDT 9:12 PM EDT
Moon 2:31 PM EDT (3/10) 4:09 AM EDT (3/10)
Length of Visible Light 12h 36m
Length of Day
11h 43m
Waxing Gibbous, 70% of the Moon is Illuminated
Mar 10
Waxing Gibbous
Mar 16
Full
Mar 23
Last Quarter
Mar 30
New
Apr 7
First Quarter

Hourly Weather History & Observations

Time (EDT) Temp. Windchill Dew Point Humidity Pressure Visibility Wind Dir Wind Speed Gust Speed Precip Events Conditions
12:53 AM 39.9 °F - 26.1 °F 58% 30.07 in 10.0 mi Calm Calm - N/A   Clear
1:53 AM 37.9 °F - 27.0 °F 65% 30.06 in 10.0 mi Calm Calm - N/A   Clear
2:53 AM 39.9 °F 36.7 °F 28.0 °F 63% 30.04 in 10.0 mi SSW 4.6 mph - N/A   Clear
3:53 AM 39.9 °F 36.7 °F 30.0 °F 68% 30.04 in 10.0 mi SW 4.6 mph - N/A   Clear
4:53 AM 39.9 °F 35.8 °F 30.9 °F 70% 30.01 in 10.0 mi SW 5.8 mph - N/A   Clear
5:53 AM 39.9 °F 35.1 °F 32.0 °F 73% 30.01 in 8.0 mi SW 6.9 mph - N/A   Clear
6:53 AM 37.9 °F 32.7 °F 32.0 °F 79% 29.99 in 6.0 mi SSW 6.9 mph - N/A   Haze
7:53 AM 39.0 °F 34.0 °F 33.1 °F 79% 30.00 in 6.0 mi SW 6.9 mph - N/A   Haze
8:53 AM 39.9 °F 33.4 °F 35.1 °F 83% 29.99 in 5.0 mi SW 10.4 mph - N/A   Haze
9:53 AM 44.1 °F 38.6 °F 36.0 °F 73% 29.98 in 6.0 mi SW 10.4 mph 18.4 mph N/A   Haze
10:53 AM 50.0 °F - 39.0 °F 66% 29.97 in 8.0 mi SW 11.5 mph - N/A   Clear
11:53 AM 54.0 °F - 39.9 °F 59% 29.95 in 9.0 mi WSW 12.7 mph - N/A   Clear
12:53 PM 59.0 °F - 37.9 °F 46% 29.93 in 10.0 mi WSW 12.7 mph - N/A   Clear
1:53 PM 63.0 °F - 37.0 °F 38% 29.90 in 10.0 mi SSW 16.1 mph 21.9 mph N/A   Clear
2:53 PM 64.9 °F - 36.0 °F 34% 29.86 in 10.0 mi SSW 13.8 mph 20.7 mph N/A   Clear
3:53 PM 68.0 °F - 34.0 °F 28% 29.83 in 10.0 mi SSW 13.8 mph 20.7 mph N/A   Clear
4:53 PM 66.0 °F - 33.1 °F 29% 29.81 in 10.0 mi SW 10.4 mph 19.6 mph N/A   Clear
5:53 PM 66.9 °F - 32.0 °F 27% 29.79 in 10.0 mi SW 12.7 mph - N/A   Clear
6:53 PM 66.0 °F - 32.0 °F 28% 29.78 in 10.0 mi SW 9.2 mph 19.6 mph N/A   Clear
7:53 PM 64.9 °F - 34.0 °F 32% 29.79 in 10.0 mi SSW 9.2 mph - N/A   Clear
8:53 PM 62.1 °F - 35.1 °F 37% 29.79 in 10.0 mi SSW 8.1 mph - N/A   Clear
9:53 PM 60.1 °F - 36.0 °F 41% 29.81 in 10.0 mi SSW 3.5 mph - N/A   Clear
10:53 PM 57.9 °F - 37.0 °F 46% 29.81 in 10.0 mi SSW 4.6 mph - N/A   Clear
11:53 PM 57.0 °F - 37.9 °F 49% 29.81 in 10.0 mi SSW 5.8 mph - N/A   Clear